Buffalo, MN

3:38 AM CST on November 18, 2019 (GMT -0600)
Buffalo

Weather History for KCFE - October, 2019

Change the Weather History Date:

Sunday, October 20, 2019

  Actual Average (KMIC) Record (KMIC)
Temperature  
Mean Temperature 48 °F -  
Max Temperature 64 °F 54 °F 78 °F (2003)
Min Temperature 33 °F 35 °F 23 °F (1999)
Degree Days  
Heating Degree Days 16    
Moisture  
Dew Point 35 °F    
Average Humidity 60    
Maximum Humidity 92    
Minimum Humidity 31    
Precipitation  
Precipitation 0.00 in - - ()
Sea Level Pressure  
Sea Level Pressure 29.80 in    
Wind  
Wind Speed - (North)    
Max Wind Speed -    
Max Gust Speed -    
Visibility 10 miles    
Events      
Averages and records for this station are not official NWS values.
T = Trace of Precipitation, MM = Missing Value Source: NWS Daily Summary

Daily Weather History Graph

Daily Weather History Graph

Search for Another Location

Airport or City:

Astronomy

Oct. 20, 2019 Rise Set
Actual Time 7:37 AM CDT 6:22 PM CDT
Civil Twilight 7:07 AM CDT 6:51 PM CDT
Nautical Twilight 6:33 AM CDT 7:26 PM CDT
Astronomical Twilight 5:59 AM CDT 8:00 PM CDT
Moon 11:20 PM CDT (10/20) 2:17 PM CDT (10/20)
Length of Visible Light 11h 44m
Length of Day
10h 44m
Waning Gibbous, 59% of the Moon is Illuminated
Oct 20
Waning Gibbous
Oct 21
Last Quarter
Oct 27
New
Nov 4
First Quarter
Nov 12
Full

Hourly Weather History & Observations

Time (CDT) Temp. Dew Point Humidity Pressure Visibility Wind Dir Wind Speed Gust Speed Precip Events Conditions
12:15 AM 40.5 °F 32.9 °F 74% 29.76 in 10.0 mi North - - N/A   Clear
12:35 AM 39.2 °F 33.6 °F 80% 29.76 in 10.0 mi North - - N/A   Clear
12:36 AM 39.2 °F 33.6 °F 80% 29.76 in 10.0 mi North - - N/A   Clear
12:55 AM 38.3 °F 33.3 °F 82% 29.76 in 10.0 mi North - - N/A   Clear
1:15 AM 37.4 °F 32.9 °F 84% 29.76 in 10.0 mi North - - N/A   Clear
1:16 AM 37.4 °F 32.9 °F 84% 29.75 in 10.0 mi North - - N/A   Clear
1:35 AM 37.2 °F 33.4 °F 86% 29.75 in 10.0 mi North - - N/A   Clear
1:55 AM 37.4 °F 33.4 °F 86% 29.76 in 10.0 mi North - - N/A   Clear
2:15 AM 36.5 °F 33.1 °F 87% 29.76 in 10.0 mi North - - N/A   Clear
2:16 AM 36.5 °F 32.9 °F 87% 29.76 in 10.0 mi North - - N/A   Clear
2:35 AM 36.3 °F 32.7 °F 87% 29.76 in 10.0 mi North - - N/A   Clear
2:55 AM 35.6 °F 32.2 °F 87% 29.76 in 10.0 mi North - - N/A   Clear
2:56 AM 35.6 °F 32.0 °F 87% 29.76 in 10.0 mi North - - N/A   Clear
3:15 AM 35.6 °F 32.0 °F 87% 29.77 in 10.0 mi North - - N/A   Clear
3:35 AM 35.6 °F 32.0 °F 87% 29.77 in 10.0 mi North - - N/A   Clear
3:36 AM 35.6 °F 32.0 °F 87% 29.77 in 10.0 mi North - - N/A   Clear
3:55 AM 35.4 °F 32.2 °F 88% 29.78 in 10.0 mi North - - N/A   Clear
4:15 AM 35.6 °F 31.8 °F 86% 29.78 in 10.0 mi North - - N/A   Clear
4:16 AM 35.4 °F 31.8 °F 87% 29.78 in 10.0 mi North - - N/A   Clear
4:35 AM 34.9 °F 31.8 °F 89% 29.78 in 10.0 mi North - - N/A   Clear
4:55 AM 35.6 °F 32.0 °F 87% 29.79 in 10.0 mi North - - N/A   Clear
5:15 AM 34.7 °F 32.0 °F 90% 29.79 in 10.0 mi North - - N/A   Clear
5:35 AM 35.1 °F 32.0 °F 89% 29.81 in 10.0 mi North - - N/A   Clear
5:55 AM 34.2 °F 31.3 °F 89% 29.81 in 10.0 mi North - - N/A   Clear
6:15 AM 33.8 °F 31.3 °F 90% 29.81 in 10.0 mi North - - N/A   Clear
6:16 AM 33.8 °F 31.3 °F 90% 29.81 in 10.0 mi North - - N/A   Clear
6:35 AM 33.6 °F 31.5 °F 92% 29.81 in 10.0 mi North - - N/A   Clear
6:55 AM 33.8 °F 31.1 °F 90% 29.81 in 10.0 mi North - - N/A   Clear
7:15 AM 33.8 °F 31.1 °F 90% 29.82 in 10.0 mi North - - N/A   Clear
7:35 AM 33.8 °F 31.3 °F 90% 29.82 in 10.0 mi North - - N/A   Clear
7:55 AM 33.8 °F 31.5 °F 91% 29.84 in 10.0 mi North - - N/A   Clear
8:15 AM 34.9 °F 31.5 °F 87% 29.84 in 10.0 mi North - - N/A   Clear
8:35 AM 36.9 °F 31.8 °F 82% 29.85 in 10.0 mi North - - N/A   Clear
8:55 AM 39.7 °F 34.2 °F 80% 29.85 in 10.0 mi North - - N/A   Clear
8:56 AM 39.9 °F 34.3 °F 80% 29.85 in 10.0 mi North - - N/A   Clear
9:15 AM 43.2 °F 36.5 °F 77% 29.86 in 10.0 mi North - - N/A   Clear
9:35 AM 46.4 °F 36.7 °F 69% 29.86 in 10.0 mi North - - N/A   Clear
10:15 AM 50.7 °F 37.4 °F 60% 29.85 in 10.0 mi North - - N/A   Clear
10:35 AM 52.5 °F 36.9 °F 55% 29.85 in 10.0 mi North - - N/A   Clear
10:36 AM 52.7 °F 36.9 °F 55% 29.85 in 10.0 mi North - - N/A   Clear
10:55 AM 55.4 °F 36.7 °F 49% 29.85 in 10.0 mi North - - N/A   Clear
10:56 AM 55.4 °F 36.7 °F 49% 29.85 in 10.0 mi North - - N/A   Clear
11:15 AM 57.6 °F 36.7 °F 46% 29.86 in 10.0 mi North - - N/A   Clear
11:35 AM 59.4 °F 36.5 °F 43% 29.85 in 10.0 mi North - - N/A   Clear
11:36 AM 59.5 °F 36.5 °F 42% 29.85 in 10.0 mi North - - N/A   Clear
11:55 AM 61.5 °F 35.4 °F 38% 29.86 in 10.0 mi North - - N/A   Clear
11:56 AM 61.7 °F 35.6 °F 38% 29.86 in 10.0 mi North - - N/A   Clear
12:35 PM 63.3 °F 32.2 °F 31% 29.85 in 10.0 mi North - - N/A   Clear
12:55 PM 63.7 °F 32.0 °F 31% 29.85 in 10.0 mi North - - N/A   Clear
12:56 PM 63.7 °F 32.2 °F 31% 29.85 in 10.0 mi North - - N/A   Clear
1:15 PM 63.1 °F 31.6 °F 31% 29.85 in 10.0 mi North - - N/A   Clear
1:35 PM 63.9 °F 32.5 °F 31% 29.84 in 10.0 mi North - - N/A   Scattered Clouds
1:55 PM 64.6 °F 33.3 °F 31% 29.84 in 10.0 mi North - - N/A   Mostly Cloudy
1:56 PM 64.6 °F 33.3 °F 31% 29.84 in 10.0 mi North - - N/A   Mostly Cloudy
2:15 PM 64.2 °F 34.0 °F 32% 29.83 in 10.0 mi North - - N/A   Scattered Clouds
2:55 PM 63.7 °F 33.1 °F 32% 29.82 in 10.0 mi North - - N/A   Clear
2:56 PM 63.7 °F 33.1 °F 32% 29.82 in 10.0 mi North - - N/A   Clear
3:15 PM 63.5 °F 33.4 °F 33% 29.82 in 10.0 mi North - - N/A   Scattered Clouds
3:35 PM 63.0 °F 33.4 °F 33% 29.82 in 10.0 mi North - - N/A   Scattered Clouds
3:55 PM 62.6 °F 34.2 °F 35% 29.82 in 10.0 mi North - - N/A   Clear
3:56 PM 62.6 °F 34.2 °F 35% 29.82 in 10.0 mi North - - N/A   Clear
4:15 PM 62.1 °F 35.6 °F 37% 29.82 in 10.0 mi North - - N/A   Clear
4:35 PM 62.1 °F 36.7 °F 39% 29.80 in 10.0 mi North - - N/A   Scattered Clouds
4:55 PM 61.0 °F 36.9 °F 41% 29.81 in 10.0 mi North - - N/A   Mostly Cloudy
4:56 PM 61.0 °F 36.7 °F 40% 29.81 in 10.0 mi North - - N/A   Mostly Cloudy
5:15 PM 60.6 °F 36.7 °F 41% 29.80 in 10.0 mi North - - N/A   Scattered Clouds
5:35 PM 59.9 °F 37.4 °F 43% 29.80 in 10.0 mi North - - N/A   Clear
5:36 PM 59.7 °F 37.4 °F 43% 29.80 in 10.0 mi North - - N/A   Clear
5:55 PM 58.6 °F 37.8 °F 46% 29.80 in 10.0 mi North - - N/A   Clear
6:15 PM 58.1 °F 37.8 °F 47% 29.79 in 10.0 mi North - - N/A   Scattered Clouds
6:16 PM 58.1 °F 37.8 °F 47% 29.79 in 10.0 mi North - - N/A   Scattered Clouds
6:35 PM 58.1 °F 37.4 °F 46% 29.79 in 10.0 mi North - - N/A   Scattered Clouds
6:36 PM 58.1 °F 37.4 °F 46% 29.79 in 10.0 mi North - - N/A   Scattered Clouds
6:55 PM 57.4 °F 37.6 °F 48% 29.80 in 10.0 mi North - - N/A   Scattered Clouds
7:15 PM 57.4 °F 37.4 °F 47% 29.80 in 10.0 mi North - - N/A   Clear
7:35 PM 57.4 °F 37.4 °F 47% 29.79 in 10.0 mi North - - N/A   Clear
7:36 PM 57.4 °F 37.4 °F 47% 29.79 in 10.0 mi North - - N/A   Clear
7:55 PM 57.2 °F 37.6 °F 48% 29.80 in 10.0 mi North - - N/A   Clear
8:15 PM 56.8 °F 37.6 °F 49% 29.80 in 10.0 mi North - - N/A   Clear
8:16 PM 56.7 °F 37.6 °F 49% 29.80 in 10.0 mi North - - N/A   Scattered Clouds
8:35 PM 56.7 °F 37.4 °F 49% 29.81 in 10.0 mi North - - N/A   Scattered Clouds
8:55 PM 56.7 °F 37.0 °F 48% 29.80 in 10.0 mi North - - N/A   Clear
9:15 PM 56.3 °F 36.9 °F 48% 29.80 in 10.0 mi North - - N/A   Clear
9:16 PM 56.3 °F 36.9 °F 48% 29.80 in 10.0 mi North - - N/A   Clear
9:35 PM 56.3 °F 37.0 °F 48% 29.80 in 10.0 mi North - - N/A   Clear
9:55 PM 56.3 °F 37.8 °F 50% 29.79 in 10.0 mi North - - N/A   Mostly Cloudy
9:56 PM 56.1 °F 37.8 °F 50% 29.79 in 10.0 mi North - - N/A   Mostly Cloudy
10:15 PM 56.1 °F 38.3 °F 51% 29.79 in 10.0 mi North - - N/A   Overcast
10:16 PM 55.9 °F 38.3 °F 52% 29.79 in 10.0 mi North - - N/A   Overcast
10:35 PM 55.9 °F 38.8 °F 53% 29.78 in 10.0 mi North - - N/A   Overcast
10:36 PM 55.9 °F 38.8 °F 53% 29.78 in 10.0 mi North - - N/A   Overcast
10:55 PM 55.9 °F 39.2 °F 53% 29.77 in 10.0 mi North - - N/A   Overcast
11:15 PM 55.9 °F 40.5 °F 56% 29.77 in 10.0 mi North - - N/A   Mostly Cloudy
11:16 PM 55.8 °F 40.5 °F 56% 29.77 in 10.0 mi North - - N/A   Mostly Cloudy
11:35 PM 55.8 °F 41.5 °F 59% 29.76 in 10.0 mi North - - N/A   Overcast
11:55 PM 55.6 °F 42.3 °F 61% 29.74 in 10.0 mi North - - N/A   Overcast
11:56 PM 55.6 °F 42.3 °F 61% 29.74 in 10.0 mi North - - N/A   Overcast